Overview Statistics Trail Chart Weather Telemetry Raw packets
 

This is the latest recevied weather packets stored in our database for station/object NO9B. If no packets are shown the sender has not sent any weather packets the latest 10 day(s).

<< 14 15 16 17 18 19 20 >>
Time Temp. Humidity Pressure Rain* Wind** Luminosity Snow
1788560730 30.56° C 71% 1014 hPa 0 mm - 33 W/m² -
1788560426 31.67° C 67% 1013.8 hPa 0 mm - 81 W/m² -
1788560121 32.78° C 66% 1013.8 hPa 0 mm - 116 W/m² -
1788559821 33.33° C 68% 1013.8 hPa 0 mm - 146 W/m² -
1788559520 33.33° C 68% 1013.5 hPa 0 mm - 144 W/m² -
1788559217 33.33° C 65% 1013.8 hPa 0 mm - 187 W/m² -
1788558916 32.78° C 69% 1013.8 hPa 0 mm - 204 W/m² -
1788558612 32.78° C 68% 1013.9 hPa 0 mm - 227 W/m² -
1788558307 32.78° C 67% 1013.9 hPa 0 mm - 249 W/m² -
1788558002 32.78° C 67% 1014 hPa 0 mm - 184 W/m² -
1788557701 33.33° C 67% 1013.8 hPa 0 mm - 96 W/m² -
1788557397 32.78° C 68% 1013.8 hPa 0 mm - 353 W/m² -
1788557097 32.78° C 66% 1013.7 hPa 0 mm - 171 W/m² -
1788556792 32.78° C 67% 1013.6 hPa 0 mm - 262 W/m² -
1788556492 32.78° C 67% 1013.8 hPa 0 mm - 263 W/m² -
1788556188 32.78° C 66% 1013.5 hPa 0 mm - 313 W/m² -
1788555886 32.78° C 71% 1013.5 hPa 0 mm - 361 W/m² -
1788555583 32.22° C 71% 1013.4 hPa 0 mm - 415 W/m² -
1788555278 32.22° C 71% 1013.2 hPa 0 mm - 111 W/m² -
1788554975 32.22° C 70% 1013.2 hPa 0 mm - 423 W/m² -
1788554670 31.67° C 70% 1013.2 hPa 0 mm - 418 W/m² -
1788554367 31.11° C 72% 1013.3 hPa 0 mm - 421 W/m² -
1788554063 30.56° C 74% 1013.1 hPa 0 mm - 423 W/m² -
1788553758 30° C 76% 1013.4 hPa 0 mm - 442 W/m² -
1788553454 30° C 76% 1013.3 hPa 0 mm - 417 W/m² -

* Rain latest hour (hover to see other rain measurements)
** Current wind speed in m/s (hover to see current wind gust speed)